Weather History for KHSP - June, 2014

Change the Weather History Date:

Sunday, June 1, 2014

  Actual Average Record
Temperature  
Mean Temperature 56 °F -  
Max Temperature 61 °F 65 °F 80 °F (2011)
Min Temperature 51 °F 50 °F 41 °F (2003)
Degree Days  
Heating Degree Days 9    
Growing Degree Days 6 (Base 50)    
Moisture  
Dew Point 47 °F    
Average Humidity 74    
Maximum Humidity 87    
Minimum Humidity 62    
Precipitation  
Precipitation 0.00 in - - ()
Sea Level Pressure  
Sea Level Pressure 30.37 in    
Wind  
Wind Speed 8 mph (SSE)    
Max Wind Speed 12 mph    
Max Gust Speed 17 mph    
Visibility 10 miles    
Events      
Averages and records for this station are not official NWS values.
T = Trace of Precipitation, MM = Missing Value Source: NWS Daily Summary

Daily Weather History Graph

Daily Weather History Graph

Search for Another Location

Airport or City:

Trip Planner

Search our weather history database for the weather conditions in past years. The results will help you decide how hot, cold, wet, or windy it might be!

Date:

Astronomy

Jun. 01, 2014 Rise Set
Actual Time 5:58 AM EDT 8:36 PM EDT
Civil Twilight 5:27 AM EDT 9:06 PM EDT
Nautical Twilight 4:49 AM EDT 9:45 PM EDT
Astronomical Twilight 4:06 AM EDT 10:28 PM EDT
Moon 9:27 AM EDT (6/1) 11:32 PM EDT (6/1)
Length of Visible Light 15h 39m
Length of Day
14h 37m
Waxing Crescent, 14% of the Moon is Illuminated
Jun 1
Waxing Crescent
Jun 5
First Quarter
Jun 13
Full
Jun 19
Last Quarter
Jun 27
New

Hourly Weather History & Observations

Time (EDT) Temp. Dew Point Humidity Pressure Visibility Wind Dir Wind Speed Gust Speed Precip Events Conditions
12:15 AM 56.3 °F 45.0 °F 66% 30.35 in 10.0 mi SSE 8.1 mph - N/A   Overcast
12:35 AM 55.8 °F 44.4 °F 66% 30.35 in 10.0 mi SE 9.2 mph - N/A   Overcast
12:55 AM 55.8 °F 43.7 °F 64% 30.35 in 10.0 mi SE 8.1 mph - N/A   Overcast
1:15 AM 55.4 °F 43.9 °F 65% 30.35 in 10.0 mi SE 8.1 mph - N/A   Overcast
1:35 AM 55.0 °F 43.7 °F 66% 30.35 in 10.0 mi SSE 8.1 mph - N/A   Overcast
2:15 AM 55.4 °F 42.6 °F 62% 30.35 in 10.0 mi SE 6.9 mph - N/A   Overcast
2:35 AM 55.0 °F 42.6 °F 63% 30.35 in 10.0 mi SE 6.9 mph - N/A   Overcast
3:15 AM 54.1 °F 42.3 °F 64% 30.36 in 10.0 mi SE 5.8 mph - N/A   Mostly Cloudy
3:30 AM 54.0 °F 42.1 °F 64% 30.36 in 10.0 mi SE 4.6 mph - N/A   Overcast
3:50 AM 54.5 °F 42.3 °F 63% 30.36 in 10.0 mi SE 5.8 mph - N/A   Overcast
4:15 AM 54.5 °F 42.6 °F 64% 30.36 in 10.0 mi SE 6.9 mph - N/A   Overcast
4:35 AM 53.4 °F 42.4 °F 66% 30.35 in 10.0 mi SE 8.1 mph - N/A   Overcast
4:55 AM 51.8 °F 42.3 °F 70% 30.36 in 10.0 mi SSE 6.9 mph - N/A   Scattered Clouds
5:15 AM 51.6 °F 42.3 °F 70% 30.36 in 10.0 mi SSE 5.8 mph - N/A   Scattered Clouds
5:35 AM 51.3 °F 42.6 °F 72% 30.37 in 10.0 mi South 8.1 mph - N/A   Mostly Cloudy
5:55 AM 51.4 °F 41.9 °F 70% 30.37 in 10.0 mi South 8.1 mph - N/A   Overcast
6:15 AM 51.4 °F 43.5 °F 74% 30.37 in 10.0 mi South 9.2 mph - N/A   Overcast
6:35 AM 51.4 °F 43.9 °F 75% 30.37 in 10.0 mi South 6.9 mph - N/A   Scattered Clouds
6:55 AM 51.4 °F 44.6 °F 77% 30.38 in 10.0 mi South 9.2 mph - N/A   Clear
7:15 AM 51.4 °F 45.1 °F 79% 30.38 in 10.0 mi SSE 9.2 mph - N/A   Scattered Clouds
7:35 AM 52.0 °F 45.9 °F 80% 30.38 in 10.0 mi South 11.5 mph 17.3 mph N/A   Scattered Clouds
7:55 AM 52.0 °F 46.2 °F 81% 30.39 in 10.0 mi SSE 9.2 mph - N/A   Clear
8:15 AM 52.5 °F 46.8 °F 81% 30.40 in 10.0 mi SSE 9.2 mph - N/A   Clear
8:35 AM 53.2 °F 47.5 °F 81% 30.40 in 10.0 mi SSE 9.2 mph - N/A   Scattered Clouds
8:55 AM 52.3 °F 47.5 °F 84% 30.40 in 10.0 mi SSE 6.9 mph - N/A   Scattered Clouds
9:15 AM 52.9 °F 48.4 °F 85% 30.40 in 10.0 mi SSE 5.8 mph - N/A   Mostly Cloudy
9:35 AM 52.7 °F 48.9 °F 87% 30.40 in 10.0 mi SSE 9.2 mph - N/A   Overcast
9:55 AM 52.9 °F 48.6 °F 85% 30.40 in 10.0 mi SSE 9.2 mph - N/A   Overcast
10:15 AM 52.7 °F 48.7 °F 86% 30.40 in 10.0 mi SSE 8.1 mph - N/A   Overcast
10:35 AM 53.4 °F 49.1 °F 85% 30.40 in 10.0 mi South 6.9 mph - N/A   Overcast
10:50 AM 53.2 °F 49.3 °F 86% 30.40 in 10.0 mi South 8.1 mph - N/A   Overcast
11:15 AM 55.0 °F 49.1 °F 80% 30.40 in 10.0 mi SSE 9.2 mph - N/A   Mostly Cloudy
11:35 AM 56.7 °F 49.5 °F 77% 30.41 in 10.0 mi South 9.2 mph - N/A   Mostly Cloudy
11:55 AM 56.5 °F 49.5 °F 77% 30.41 in 10.0 mi South 8.1 mph - N/A   Mostly Cloudy
12:15 PM 57.0 °F 49.6 °F 76% 30.41 in 10.0 mi SSE 8.1 mph - N/A   Overcast
12:35 PM 57.9 °F 49.8 °F 74% 30.41 in 10.0 mi South 5.8 mph - N/A   Overcast
12:55 PM 58.1 °F 50.0 °F 74% 30.41 in 10.0 mi SSE 6.9 mph - N/A   Mostly Cloudy
1:15 PM 58.3 °F 50.2 °F 74% 30.40 in 10.0 mi SE 8.1 mph - N/A   Overcast
1:35 PM 59.2 °F 50.7 °F 74% 30.40 in 10.0 mi SSE 6.9 mph - N/A   Overcast
2:15 PM 59.7 °F 50.2 °F 71% 30.39 in 10.0 mi SSE 4.6 mph - N/A   Mostly Cloudy
2:30 PM 59.5 °F 50.5 °F 72% 30.39 in 10.0 mi SE 9.2 mph - N/A   Mostly Cloudy
2:55 PM 59.9 °F 50.5 °F 71% 30.39 in 10.0 mi SE 6.9 mph - N/A   Overcast
3:15 PM 60.1 °F 49.8 °F 69% 30.39 in 10.0 mi SSE 8.1 mph - N/A   Mostly Cloudy
3:55 PM 60.8 °F 50.7 °F 69% 30.38 in 10.0 mi SE 8.1 mph - N/A   Mostly Cloudy
4:15 PM 61.2 °F 50.9 °F 69% 30.38 in 10.0 mi SSE 8.1 mph - N/A   Scattered Clouds
4:35 PM 61.2 °F 49.6 °F 66% 30.37 in 10.0 mi SSE 6.9 mph - N/A   Clear
4:55 PM 61.2 °F 49.3 °F 65% 30.36 in 10.0 mi SE 6.9 mph - N/A   Clear
5:15 PM 61.5 °F 50.4 °F 67% 30.36 in 10.0 mi SSE 4.6 mph - N/A   Clear
5:35 PM 61.2 °F 50.7 °F 69% 30.36 in 10.0 mi SSE 8.1 mph - N/A   Clear
5:55 PM 61.0 °F 50.7 °F 69% 30.35 in 10.0 mi SSE 8.1 mph - N/A   Clear
6:10 PM 60.4 °F 50.4 °F 69% 30.35 in 10.0 mi South 6.9 mph - N/A   Scattered Clouds
6:35 PM 59.7 °F 50.0 °F 70% 30.34 in 10.0 mi SSE 8.1 mph - N/A   Clear
6:55 PM 59.2 °F 50.0 °F 72% 30.33 in 10.0 mi SSE 6.9 mph - N/A   Clear
7:15 PM 58.5 °F 49.6 °F 72% 30.33 in 10.0 mi South 8.1 mph - N/A   Clear
7:35 PM 57.7 °F 49.6 °F 74% 30.33 in 10.0 mi South 8.1 mph - N/A   Clear
7:55 PM 57.0 °F 49.1 °F 75% 30.33 in 10.0 mi South 9.2 mph - N/A   Clear
8:15 PM 56.1 °F 48.6 °F 76% 30.33 in 10.0 mi South 6.9 mph - N/A   Clear
8:35 PM 55.0 °F 48.7 °F 79% 30.33 in 10.0 mi SSE 6.9 mph - N/A   Clear
8:50 PM 54.5 °F 49.1 °F 82% 30.33 in 10.0 mi SSE 6.9 mph - N/A   Clear
9:15 PM 54.5 °F 48.9 °F 81% 30.34 in 10.0 mi South 8.1 mph - N/A   Clear
9:35 PM 54.0 °F 48.6 °F 82% 30.34 in 10.0 mi South 6.9 mph - N/A   Clear
9:55 PM 53.6 °F 48.4 °F 82% 30.35 in 10.0 mi South 9.2 mph - N/A   Clear
10:15 PM 53.6 °F 48.2 °F 82% 30.36 in 10.0 mi South 9.2 mph - N/A   Clear
10:35 PM 53.6 °F 47.7 °F 80% 30.36 in 10.0 mi South 9.2 mph - N/A   Clear
10:50 PM 53.4 °F 47.3 °F 80% 30.36 in 10.0 mi South 10.4 mph - N/A   Clear
11:15 PM 53.1 °F 46.9 °F 80% 30.36 in 10.0 mi South 9.2 mph - N/A   Clear
11:35 PM 52.9 °F 46.8 °F 80% 30.37 in 10.0 mi South 9.2 mph - N/A   Clear
11:55 PM 52.7 °F 46.8 °F 80% 30.37 in 10.0 mi South 9.2 mph - N/A   Clear